Details From LOWI - Innsbruck Kranebitten
To LSZA - Lugano
Flight Number -
Tags Generated
Created
Modified
Stats Distance 125 nm / 232 km
Max Altitude 0 ft / 0 m
Waypoints 2
Social Downloads 1
Likes 0
Share VATSIM

Download

Looking for another format? Having issues loading an existing format? Contact us
Advertisement - Login to hide

Notes

Generated

Route

LOWI LSZA

ID Type Via Altitude (ft/m) Position (lat/lon) Dist (leg/tot) Name
O LOWI APT - 0 / 0 47.25883 / 11.33091 - / 0 nm
O LSZA APT - 0 / 0 45.99853 / 8.90776 125 / 125 nm Lugano

Altitude Profile

Advertisement - Login to hide

LOWI

Details ICAO LOWI (INN)
Name Innsbruck
Region Austria
Timezone Europe/Vienna (UTC+2.0)
Stats Elevation 1,905 ft / 581 m (AMSL)
Location 47.260200° 11.344000°
Runways 1
Magnetic Variation 3.191° E

METAR

LOWI 241420Z 06007KT 360V160 9999 FEW065 SCT090 24/06 Q1012 NOSIG

Decode

TAF

TAF LOWI 241115Z 2412/2512 08008KT 9999 FEW070 TX23/2413Z TN11/2504Z BECMG 2417/2419 27004KT FEW070 SCT100 BKN300 BECMG 2508/2510 10007KT

Decode

Departure Runways

ID Width Length Bearing (true/mag) Surface Threshold Overrun Markings Lighting
08 148 ft / 45 m 6,545 ft / 1,995 m 80.93° / 77.74° ASPHALT 338 ft / 103 m 0 ft / 0 m PREC-APP CENTERLINE EDGE THRESHOLD REIL-OMNI
26 148 ft / 45 m 6,545 ft / 1,995 m 260.95° / 257.76° ASPHALT 0 ft / 0 m 0 ft / 0 m PREC-APP CENTERLINE EDGE THRESHOLD MALS REIL-OMNI

LSZA

Details ICAO LSZA (LUG)
Name Lugano
Region Switzerland
Timezone Europe/Zurich (UTC+2.0)
Stats Elevation 915 ft / 279 m (AMSL)
Location 46.004300° 8.910580°
Runways 1
Magnetic Variation 2.593° E

METAR

LSZA 241420Z 17004KT 090V210 9999 VCTS FEW055CB BKN130 21/14 Q1012 TEMPO TSRA

Decode

TAF

Not found

Destination Runways

ID Width Length Bearing (true/mag) Surface Threshold Overrun Markings Lighting
01 98 ft / 30 m 4,415 ft / 1,346 m 18.79° / 16.19° CONCRETE 358 ft / 109 m 16 ft / 5 m PREC-APP CENTERLINE EDGE THRESHOLD SALS REIL-UNI
19 98 ft / 30 m 4,415 ft / 1,346 m 198.79° / 196.20° CONCRETE 673 ft / 205 m 0 ft / 0 m APP CENTERLINE EDGE THRESHOLD SALS REIL-UNI

Approach Navaids

Runway Type Ident Frequency Range Bearing (true/mag) Slope Elevation
01 DME ILU 111.50 MHz 18 nm / 33 km - - 928 ft / 283 m (AMSL)
01 LOC-ILS ILU 111.50 MHz 18 nm / 33 km 18.79° / 16.20 ° - 928 ft / 283 m (AMSL)
01 GS ILU 111.50 MHz 10 nm / 19 km 20.98° / 18.39 ° 6.00° 928 ft / 283 m (AMSL)

Popular Alternatives